Tracking 19831 objects as of 23-Aug-2019
HD Live streaming from Space Station
objects crossing your sky now

COSMOS 2523

Track COSMOS 2523 now!
10-day predictions


NORAD ID: 42986
Int'l Code: 2017-037E
Perigee: 560.9 km
Apogee: 670.4 km
Inclination: 97.8 °
Period: 96.9 minutes
Semi major axis: 6986 km
RCS: Unknown
Launch date: June 23, 2017
Source: Commonwealth of Independent States (former USSR) (CIS)
Launch site: PLESETSK MISSILE AND SPACE COMPLEX (PKMTR)
aabbcc
Your satellite tracking list
Your tracking list is empty




NASA's NSSDC Master Catalog

Two Line Element Set (TLE):
1 42986U 17037E   19235.70566900  .00000279  00000-0  36098-4 0  9998
2 42986  97.7999 299.5893 0078365 202.5184 157.2550 14.86612885 98435
Source of the keplerian elements: AFSPC